[[{"header":{"parameterUnit":"m.s-1","parameterCategory":1,"la1":30.2991,"la2":30.254,"lo1":-89.0895,"lo2":-89.0444,"dy":0.0017,"dx":0.0017,"nx":28,"ny":28,"refTime":"2024-05-27T09:00:00:Z","depth":0,"parameterNumber":2,"parameterNumberName":"U-component_of_WINDS"},"data":[0,0,0,0,0,0,0,0,0,0,0,0,0,0,0,0,0,0,0,0,0,0,0,0,0,0,0,0,0,0,0,0,0,0,0,0,0,0,0,0,0,0,0,0,0,0,0,0,0,0,0,0,0,0,0,0,0,0,-0.1367,-0.1366,0,-0.1216,-0.1215,-0.1213,-0.1137,-0.1137,-0.1137,-0.1136,-0.098,-0.0976,-0.0971,0,0,0,0,0,0,0,0,0,0,0,0,0,-0.1588,-0.1584,-0.1367,-0.1365,-0.1363,-0.1217,-0.1215,-0.1213,-0.1137,-0.1137,-0.1136,-0.1136,-0.0981,-0.0976,-0.0971,0,0,0,0,0,0,0,0,0,0,0,0,0,-0.147,-0.1583,-0.1368,-0.1308,-0.1301,-0.1217,-0.1215,-0.1212,-0.1137,-0.1137,-0.1136,-0.1136,-0.0983,-0.0977,-0.097,-0.0934,0,0,-0.0951,-0.0949,0,0,0,0,0,0,0,0,-0.1477,-0.1462,-0.1319,-0.1312,-0.1304,-0.1195,-0.1235,-0.1119,-0.1137,-0.1199,-0.1136,-0.1136,-0.1051,-0.1039,-0.1011,-0.0926,-0.0919,-0.0951,-0.0947,-0.0944,-0.0943,0,0,0,0,0,0,0,-0.1485,-0.1468,-0.1307,-0.1317,-0.1308,-0.1288,-0.1271,-0.1213,-0.1127,-0.1194,-0.1188,-0.1171,-0.1047,-0.1017,-0.1007,-0.0917,-0.0951,-0.0946,-0.0942,-0.0939,-0.0795,-0.0795,0,0,0,0,0,0,-0.1503,-0.1476,-0.1312,-0.1303,-0.1392,-0.1284,-0.1266,-0.123,-0.1128,-0.1112,-0.1171,-0.1168,-0.1028,-0.1014,-0.1001,-0.0951,-0.0945,-0.0939,-0.0935,-0.0795,-0.0795,-0.0795,0,0,0,0,0,0,-0.1508,-0.1489,-0.1318,-0.1388,-0.1364,-0.1281,-0.1242,-0.1227,-0.1197,-0.1111,-0.1095,-0.1156,-0.1027,-0.101,-0.0951,-0.0945,-0.0936,-0.093,-0.0795,-0.0795,-0.0795,-0.0851,0,0,0,0,0,0,-0.1515,-0.1492,-0.1477,-0.1388,-0.1361,-0.1272,-0.1241,-0.1224,-0.1187,-0.1182,-0.1093,-0.1078,-0.1026,-0.0961,-0.0945,-0.0936,-0.0925,-0.0795,-0.0795,-0.0795,-0.085,-0.0853,-0.0856,0,0,0,0,0,-0.1523,-0.1498,-0.1477,-0.1457,-0.1341,-0.1271,-0.1256,-0.1197,-0.1187,-0.1171,-0.1116,-0.1081,-0.0948,-0.0956,-0.0937,-0.0926,-0.0795,-0.0795,-0.0795,-0.0848,-0.0852,-0.0856,0,0,0,0,0,0,-0.1588,-0.1486,-0.146,-0.1406,-0.1348,-0.1259,-0.1237,-0.1204,-0.1147,-0.1144,-0.1073,-0.1053,-0.1001,-0.0958,-0.0967,-0.0885,-0.0868,-0.0864,-0.0915,-0.0918,-0.0922,-0.0933,-0.092,0,0,0,0,0,-0.1596,-0.1549,-0.1462,-0.1422,-0.1394,-0.1321,-0.1289,-0.1249,-0.1185,-0.116,-0.11,-0.104,-0.0984,-0.0949,-0.0893,-0.0844,-0.0823,-0.0827,-0.083,-0.0833,-0.083,-0.0801,-0.0801,-0.0794,-0.0794,-0.0794,0,0,-0.1612,-0.155,-0.1524,-0.1434,-0.1384,-0.1336,-0.1301,-0.1251,-0.1215,-0.1152,-0.1093,-0.1048,-0.0975,-0.0921,-0.0894,-0.0883,-0.0828,-0.0833,-0.0836,-0.0831,-0.08,-0.0801,-0.0802,-0.0794,-0.0794,-0.0794,0,0,-0.1616,-0.1565,-0.1527,-0.1478,-0.1404,-0.1355,-0.1347,-0.1262,-0.123,-0.117,-0.1122,-0.1078,-0.0984,-0.0934,-0.0897,-0.0885,-0.085,-0.0868,-0.0885,-0.0857,-0.0857,-0.0857,-0.0852,-0.0852,-0.0866,-0.0866,-0.0866,0,-0.1645,-0.1571,-0.1511,-0.1464,-0.1426,-0.1369,-0.1329,-0.1284,-0.1196,-0.117,-0.116,-0.1042,-0.0989,-0.0922,-0.092,-0.0891,-0.0878,-0.0877,-0.0862,-0.0862,-0.0861,-0.0855,-0.0854,-0.0869,-0.0868,-0.0868,-0.0868,0,-0.1611,-0.156,-0.1538,-0.1455,-0.1414,-0.1371,-0.1304,-0.127,-0.1234,-0.1187,-0.1127,-0.1062,-0.0992,-0.0974,-0.0938,-0.0902,-0.0898,-0.0876,-0.0857,-0.0865,-0.0859,-0.0856,-0.0873,-0.0872,-0.0871,-0.087,0,0,-0.165,-0.1535,-0.1528,-0.1489,-0.1404,-0.1363,-0.1319,-0.1251,-0.1223,-0.1165,-0.1124,-0.1047,-0.1027,-0.0985,-0.0943,-0.0919,-0.0913,-0.0899,-0.0896,-0.0903,-0.0869,-0.0886,-0.0884,-0.089,-0.0889,-0.0889,-0.0875,0,-0.1642,-0.1558,-0.1503,-0.1441,-0.1394,-0.134,-0.13,-0.1244,-0.1199,-0.1152,-0.1102,-0.1048,-0.1026,-0.1,-0.0974,-0.0919,-0.0905,-0.0919,-0.0851,-0.0849,-0.087,-0.0881,-0.0897,-0.0887,-0.0872,-0.0872,-0.0871,0,-0.162,-0.1564,-0.1498,-0.1418,-0.1396,-0.1362,-0.1296,-0.1252,-0.1187,-0.1156,-0.111,-0.1068,-0.1018,-0.1005,-0.0935,-0.0946,-0.0915,-0.0885,-0.0883,-0.0873,-0.086,-0.087,-0.0883,-0.0881,-0.0867,-0.0867,-0.0868,0,-0.1655,-0.1563,-0.1511,-0.148,-0.1386,-0.1363,-0.1323,-0.1258,-0.1221,-0.1164,-0.1139,-0.1077,-0.1043,-0.0995,-0.0937,-0.0933,-0.0873,-0.0855,-0.0845,-0.0847,-0.0833,-0.0835,-0.084,-0.0816,-0.0816,-0.0816,-0.0816,0,-0.1651,-0.1612,-0.1526,-0.1494,-0.1449,-0.1387,-0.1344,-0.1299,-0.1242,-0.12,-0.115,-0.1112,-0.1038,-0.0991,-0.0946,-0.0894,-0.0879,-0.0852,-0.084,-0.0856,-0.0859,-0.0834,-0.0833,-0.0815,-0.0815,-0.0815,-0.0816,0,-0.1682,-0.1622,-0.1562,-0.1478,-0.1457,-0.1427,-0.1355,-0.1322,-0.1276,-0.1224,-0.1208,-0.1134,-0.1076,-0.1014,-0.0935,-0.0905,-0.0855,-0.0839,-0.0878,-0.0871,-0.0864,-0.0865,-0.0852,-0.0847,-0.0827,-0.0828,-0.0828,0,-0.1682,-0.1651,-0.1565,-0.1534,-0.1495,-0.1445,-0.1408,-0.1346,-0.1309,-0.1233,-0.1209,-0.1148,-0.1095,-0.1005,-0.0944,-0.0884,-0.0865,-0.0865,-0.0855,-0.0873,-0.0864,-0.0866,-0.0863,-0.0867,-0.0868,-0.0868,-0.0869,0,-0.169,-0.1662,-0.1611,-0.1549,-0.1506,-0.1454,-0.1401,-0.1378,-0.1305,-0.1267,-0.1207,-0.1167,-0.1087,-0.1026,-0.0959,-0.0916,-0.088,-0.0873,-0.0867,-0.0882,-0.0905,-0.0892,-0.0885,-0.0873,-0.0872,-0.0872,-0.0872,-0.0871,-0.1705,-0.1675,-0.161,-0.1554,-0.1507,-0.1459,-0.1424,-0.1373,-0.1323,-0.1253,-0.122,-0.116,-0.1096,-0.1002,-0.0961,-0.0914,-0.0903,-0.0895,-0.0892,-0.0891,-0.0895,-0.0914,-0.0901,-0.0901,-0.0901,-0.0901,-0.09,0,-0.1709,-0.1665,-0.1614,-0.1541,-0.1498,-0.1469,-0.1408,-0.1374,-0.1322,-0.1266,-0.1216,-0.1148,-0.109,-0.1025,-0.0962,-0.0937,-0.0919,-0.0922,-0.0923,-0.0914,-0.0908,-0.0919,-0.0938,-0.0938,-0.0938,-0.0938,-0.0938,-0.0938,-0.1706,-0.1654,-0.1619,-0.1544,-0.1499,-0.1441,-0.1409,-0.1364,-0.1319,-0.1245,-0.1197,-0.1156,-0.1096,-0.1029,-0.0974,-0.0956,-0.0935,-0.0944,-0.0921,-0.0917,-0.0914,-0.0911,-0.0921,-0.094,-0.094,-0.093,-0.093,-0.093]},{"header":{"parameterUnit":"m.s-1","parameterCategory":1,"la1":30.2991,"la2":30.254,"lo1":-89.0895,"lo2":-89.0444,"dy":0.0017,"dx":0.0017,"nx":28,"ny":28,"refTime":"2024-05-27T09:00:00:Z","depth":0,"parameterNumber":3,"parameterNumberName":"V-component_of_WINDS"},"data":[0,0,0,0,0,0,0,0,0,0,0,0,0,0,0,0,0,0,0,0,0,0,0,0,0,0,0,0,0,0,0,0,0,0,0,0,0,0,0,0,0,0,0,0,0,0,0,0,0,0,0,0,0,0,0,0,0,0,3.2421,3.2421,0,3.2466,3.2467,3.2467,3.2529,3.253,3.2531,3.2532,3.2575,3.2575,3.2575,0,0,0,0,0,0,0,0,0,0,0,0,0,3.2385,3.2385,3.2421,3.2421,3.2422,3.2466,3.2467,3.2468,3.2529,3.253,3.2531,3.2533,3.2575,3.2575,3.2575,0,0,0,0,0,0,0,0,0,0,0,0,0,3.2412,3.2385,3.2421,3.2458,3.2462,3.2466,3.2467,3.2468,3.2529,3.253,3.2532,3.2533,3.2575,3.2575,3.2575,3.2546,0,0,3.2576,3.2576,0,0,0,0,0,0,0,0,3.2411,3.2414,3.2452,3.2456,3.246,3.2494,3.247,3.2494,3.2528,3.2503,3.2532,3.2534,3.2546,3.2549,3.2554,3.2548,3.2549,3.2576,3.2576,3.2576,3.2576,0,0,0,0,0,0,0,3.2409,3.2412,3.2439,3.2453,3.2457,3.2472,3.2477,3.2475,3.2515,3.2505,3.251,3.2515,3.2549,3.2554,3.2556,3.255,3.2576,3.2576,3.2577,3.2577,3.2522,3.252,0,0,0,0,0,0,3.2402,3.241,3.2437,3.244,3.2439,3.2471,3.2478,3.2481,3.2516,3.2522,3.2513,3.2518,3.2553,3.2555,3.2557,3.2524,3.2576,3.2577,3.2577,3.2523,3.2521,3.252,0,0,0,0,0,0,3.2401,3.2403,3.2436,3.2426,3.2432,3.247,3.2474,3.2481,3.2486,3.2522,3.2529,3.2511,3.2554,3.2557,3.2548,3.2527,3.2577,3.2577,3.2525,3.2523,3.252,3.2458,0,0,0,0,0,0,3.2399,3.2403,3.2392,3.2426,3.2432,3.2426,3.2473,3.2481,3.2487,3.2493,3.2521,3.2528,3.2555,3.2548,3.2549,3.2528,3.2577,3.2527,3.2524,3.2521,3.2462,3.2454,3.2447,0,0,0,0,0,3.2398,3.2372,3.2391,3.2394,3.242,3.2425,3.2428,3.2462,3.2485,3.2474,3.2497,3.2527,3.253,3.2546,3.2548,3.2527,3.2529,3.2525,3.2521,3.2466,3.2456,3.2447,0,0,0,0,0,0,3.2333,3.2377,3.2399,3.2383,3.24,3.2435,3.2423,3.245,3.2459,3.2464,3.2505,3.2511,3.2497,3.2511,3.2529,3.25,3.2534,3.253,3.2491,3.2481,3.2474,3.247,3.2577,0,0,0,0,0,3.2317,3.2319,3.2357,3.2339,3.2347,3.2383,3.2387,3.2412,3.243,3.2437,3.2459,3.2475,3.248,3.2482,3.2488,3.2466,3.2472,3.2452,3.2445,3.2438,3.2434,3.2423,3.2414,3.2508,3.2508,3.2508,0,0,3.2284,3.2308,3.2306,3.2327,3.2343,3.2343,3.2389,3.2387,3.2387,3.2436,3.243,3.2447,3.2467,3.2452,3.2446,3.2463,3.241,3.2433,3.2428,3.2427,3.2418,3.2409,3.2401,3.2505,3.2506,3.2506,0,0,3.2223,3.2242,3.223,3.2245,3.227,3.2294,3.2291,3.2323,3.2337,3.2331,3.2369,3.2369,3.2376,3.2389,3.2397,3.2343,3.237,3.2344,3.2302,3.2291,3.2284,3.2277,3.2257,3.225,3.234,3.234,3.234,0,3.2178,3.218,3.2219,3.2215,3.2223,3.2271,3.2258,3.2271,3.2295,3.2299,3.2319,3.2329,3.2346,3.2334,3.2321,3.2326,3.2323,3.234,3.2282,3.2276,3.2271,3.2252,3.2244,3.2336,3.2337,3.2337,3.2338,0,3.2124,3.2125,3.2112,3.2136,3.2142,3.2134,3.2171,3.2173,3.2198,3.222,3.2214,3.2236,3.2248,3.2248,3.2271,3.2239,3.2249,3.2275,3.2309,3.2258,3.224,3.2234,3.2332,3.2333,3.2334,3.2335,0,0,3.202,3.2068,3.2062,3.2074,3.2105,3.2106,3.21,3.2113,3.2114,3.213,3.2125,3.2131,3.2155,3.2164,3.2189,3.218,3.2135,3.2207,3.2208,3.2192,3.21,3.2079,3.207,3.2154,3.2153,3.2152,3.2098,0,3.1964,3.1957,3.1993,3.1976,3.1977,3.2023,3.2018,3.2036,3.2057,3.2061,3.2084,3.2087,3.212,3.2126,3.2119,3.2142,3.2116,3.2146,3.2148,3.2148,3.214,3.2061,3.2039,3.1986,3.2091,3.209,3.209,0,3.1897,3.1911,3.1894,3.1927,3.1929,3.1924,3.1939,3.1942,3.1964,3.198,3.199,3.2021,3.2016,3.205,3.2044,3.2064,3.2067,3.2079,3.2077,3.2077,3.2114,3.2057,3.1971,3.1962,3.208,3.208,3.2081,0,3.1822,3.1837,3.1829,3.1838,3.1876,3.1871,3.1887,3.191,3.1916,3.1929,3.1933,3.1945,3.1951,3.1959,3.1992,3.2014,3.1981,3.2018,3.1993,3.1992,3.1982,3.1982,3.1893,3.1987,3.1987,3.1987,3.1988,0,3.1754,3.1742,3.1796,3.179,3.1778,3.182,3.1806,3.1826,3.1847,3.1846,3.1887,3.1885,3.1929,3.1931,3.1957,3.1947,3.195,3.1962,3.1968,3.1957,3.1955,3.1958,3.1962,3.1985,3.1986,3.1986,3.1987,0,3.1667,3.1703,3.1697,3.1735,3.1745,3.1734,3.1766,3.1762,3.1787,3.1785,3.1787,3.1826,3.1831,3.1865,3.1877,3.1895,3.1875,3.189,3.1868,3.1872,3.1845,3.1846,3.1753,3.1743,3.1844,3.1843,3.1842,0,3.1621,3.1613,3.1651,3.1654,3.1668,3.1672,3.1679,3.172,3.1725,3.175,3.1743,3.1752,3.1761,3.1767,3.1796,3.1805,3.182,3.1786,3.1821,3.181,3.1817,3.1817,3.1816,3.1778,3.1777,3.1776,3.1775,0,3.1534,3.1553,3.1562,3.1577,3.1584,3.1598,3.1613,3.1613,3.1659,3.1662,3.1669,3.1676,3.1691,3.1698,3.1714,3.1729,3.1758,3.1764,3.1759,3.1746,3.1733,3.1739,3.1846,3.1765,3.1766,3.1767,3.1768,3.1768,3.1465,3.146,3.1487,3.1495,3.1512,3.1526,3.1525,3.1551,3.1557,3.1573,3.1597,3.16,3.1623,3.1646,3.1659,3.1662,3.1679,3.1671,3.1669,3.1666,3.166,3.1735,3.1665,3.1665,3.1665,3.1666,3.1666,0,3.138,3.1399,3.1407,3.1429,3.1436,3.1466,3.1486,3.1489,3.1492,3.1511,3.152,3.1527,3.1536,3.1566,3.1577,3.1573,3.1587,3.1574,3.1574,3.1577,3.1644,3.1647,3.1563,3.1563,3.1563,3.1563,3.1563,3.1563,3.1336,3.1329,3.1351,3.1353,3.1373,3.1378,3.1386,3.1399,3.1415,3.1422,3.143,3.145,3.1473,3.1487,3.1496,3.1504,3.1506,3.1488,3.1501,3.1562,3.1572,3.1582,3.1585,3.1489,3.1488,3.1433,3.1433,3.1432]}]]